Weather History for Sussex, NJ

Change the Weather History Date:

Wednesday, March 6, 2013

  Actual Average Record
Temperature  
Mean Temperature 36 °F -  
Max Temperature 39 °F 44 °F 70 °F (1964)
Min Temperature 34 °F 24 °F 1 °F (1969)
Degree Days  
Heating Degree Days 28    
Moisture  
Dew Point 28 °F    
Average Humidity 73    
Maximum Humidity 93    
Minimum Humidity 57    
Precipitation  
Precipitation 0.01 in - - ()
Sea Level Pressure  
Sea Level Pressure 29.93 in    
Wind  
Wind Speed 11 mph (NE)    
Max Wind Speed 20 mph    
Max Gust Speed 32 mph    
Visibility 9 miles    
Events Rain , Snow    
Averages and records for this station are not official NWS values.
T = Trace of Precipitation, MM = Missing Value Source: NWS Daily Summary

Daily Weather History Graph

Daily Weather History Graph

Search for Another Location

Airport:

Trip Planner

Search our weather history database for the weather conditions in past years. The results will help you decide how hot, cold, wet, or windy it might be!

Date:

Astronomy

Mar. 06, 2013 Rise Set
Actual Time 6:24 AM EST 5:55 PM EST
Civil Twilight 5:57 AM EST 6:22 PM EST
Nautical Twilight 5:25 AM EST 6:54 PM EST
Astronomical Twilight 4:53 AM EST 7:27 PM EST
Moon 2:33 AM EST (3/6) 12:32 PM EST (3/6)
Length of Visible Light 12h 25m
Length of Day
11h 30m
Waning Crescent, 30% of the Moon is Illuminated
Mar 6
Waning Crescent
Mar 11
New
Mar 19
First Quarter
Mar 27
Full
Apr 3
Last Quarter

Hourly Weather History & Observations

Time (EST) Temp. Windchill Dew Point Humidity Pressure Visibility Wind Dir Wind Speed Gust Speed Precip Events Conditions
12:53 AM 35.1 °F 29.3 °F 25.0 °F 67% 29.97 in 10.0 mi NE 6.9 mph - N/A   Overcast
1:53 AM 35.1 °F 29.3 °F 25.0 °F 67% 29.96 in 10.0 mi NE 6.9 mph - N/A   Overcast
2:53 AM 34.0 °F 28.0 °F 25.0 °F 70% 29.94 in 10.0 mi NE 6.9 mph - N/A   Overcast
3:53 AM 34.0 °F 26.6 °F 25.0 °F 70% 29.91 in 10.0 mi NNE 9.2 mph - N/A   Mostly Cloudy
4:53 AM 34.0 °F 26.6 °F 26.1 °F 73% 29.91 in 10.0 mi NNE 9.2 mph - N/A   Overcast
5:29 AM 35.6 °F 28.6 °F 26.6 °F 70% 29.91 in 10.0 mi NNE 9.2 mph - N/A   Overcast
5:45 AM 35.6 °F 27.5 °F 26.6 °F 70% 29.90 in 10.0 mi NNE 11.5 mph - N/A   Overcast
5:53 AM 35.1 °F 27.4 °F 26.1 °F 70% 29.92 in 10.0 mi NE 10.4 mph 20.7 mph 0.00 in Rain Light Rain
6:53 AM 35.1 °F 25.9 °F 26.1 °F 70% 29.92 in 10.0 mi NNE 13.8 mph - 0.00 in   Overcast
7:10 AM 35.6 °F 27.1 °F 26.6 °F 70% 29.91 in 10.0 mi NNE 12.7 mph 18.4 mph N/A   Overcast
7:19 AM 35.6 °F 26.2 °F 26.6 °F 70% 29.90 in 10.0 mi NNE 15.0 mph 19.6 mph N/A   Overcast
7:53 AM 35.1 °F 26.4 °F 27.0 °F 72% 29.91 in 10.0 mi NNE 12.7 mph - N/A   Overcast
8:53 AM 36.0 °F 27.5 °F 28.9 °F 76% 29.92 in 10.0 mi NNE 12.7 mph 19.6 mph 0.00 in   Overcast
9:53 AM 35.1 °F 26.9 °F 30.9 °F 85% 29.92 in 3.0 mi NE 11.5 mph - 0.00 in Snow Light Snow
10:21 AM 35.6 °F 27.5 °F 30.2 °F 81% 29.91 in 3.0 mi NE 11.5 mph 23.0 mph 0.00 in Snow Light Snow
10:40 AM 35.6 °F 27.5 °F 32.0 °F 87% 29.90 in 6.0 mi NE 11.5 mph 21.9 mph 0.00 in   Overcast
10:53 AM 36.0 °F 27.1 °F 32.0 °F 86% 29.91 in 6.0 mi NNE 13.8 mph 21.9 mph 0.00 in   Overcast
11:34 AM 35.6 °F 26.2 °F 33.8 °F 93% 29.90 in 6.0 mi NNE 15.0 mph 24.2 mph 0.00 in   Overcast
11:42 AM 37.4 °F 28.5 °F 33.8 °F 87% 29.89 in 8.0 mi NNE 15.0 mph 24.2 mph 0.00 in   Overcast
11:45 AM 37.4 °F 28.5 °F 33.8 °F 87% 29.89 in 7.0 mi NNE 15.0 mph - 0.00 in   Overcast
11:53 AM 37.0 °F 29.3 °F 33.1 °F 86% 29.90 in 6.0 mi NE 11.5 mph 20.7 mph 0.00 in   Overcast
12:53 PM 39.9 °F 32.9 °F 35.1 °F 83% 29.89 in 10.0 mi NE 11.5 mph - 0.01 in   Overcast
1:35 PM 37.4 °F 29.3 °F 33.8 °F 87% 29.89 in 5.0 mi NNE 12.7 mph 27.6 mph 0.00 in Rain Light Rain
1:53 PM 39.9 °F 31.8 °F 34.0 °F 79% 29.89 in 10.0 mi NE 15.0 mph 20.7 mph 0.00 in   Overcast
2:53 PM 39.9 °F 31.8 °F 30.9 °F 70% 29.90 in 10.0 mi NE 15.0 mph 26.5 mph 0.00 in   Overcast
3:53 PM 39.9 °F 31.4 °F 27.0 °F 60% 29.91 in 10.0 mi NE 16.1 mph 29.9 mph N/A   Overcast
4:53 PM 39.9 °F 30.5 °F 26.1 °F 58% 29.94 in 10.0 mi NNE 19.6 mph 31.1 mph N/A   Overcast
5:53 PM 39.0 °F 30.6 °F 27.0 °F 62% 29.96 in 10.0 mi NNE 15.0 mph 29.9 mph N/A   Overcast
6:53 PM 39.0 °F 29.3 °F 26.1 °F 60% 29.98 in 10.0 mi NE 19.6 mph 29.9 mph N/A   Overcast
7:53 PM 37.9 °F 29.6 °F 26.1 °F 62% 29.98 in 10.0 mi NE 13.8 mph 26.5 mph N/A   Mostly Cloudy
8:53 PM 37.9 °F 28.5 °F 24.1 °F 57% 29.99 in 10.0 mi NE 17.3 mph 32.2 mph N/A   Overcast
9:53 PM 37.0 °F 26.7 °F 24.1 °F 59% 29.99 in 10.0 mi NNE 19.6 mph 27.6 mph N/A   Overcast
10:53 PM 37.0 °F 27.7 °F 24.1 °F 59% 30.00 in 10.0 mi NNE 16.1 mph 24.2 mph N/A   Overcast
11:53 PM 36.0 °F 27.5 °F 24.1 °F 62% 29.99 in 10.0 mi NNE 12.7 mph 21.9 mph N/A   Overcast